Latest Coastal Weather Observations for Maroochydore

IDQ60701

Issued at 3:42 am EST Tuesday 23 December 2014 (issued every 10 minutes, with the page automatically refreshed every 10 minutes)

About coastal observations | Map of coastal stations | Coastal observations for QLD | Marine services | Other Formats
Station Details ID: 040861 Name: SUNSHINE COAST AIRPORT Lat: -26.60 Lon: 153.09 Height: 3.3 m
Data from the previous 72 hours. | See also: Recent months at Maroochydore
Date/Time
EST
Temp

°C
Wind Pressure Rain
since 9am
mm
Weather Cloud Vis
km
Sea
Height
m
Swell
Dir
 
Speed
knots
Gust
knots
hPa Trend Height
m
Period
s
Dir
23/03:30am 17.8 WSW 5 6 1015.1 - 0.0 - - 10 - - - -
23/03:00am 18.6 WSW 6 7 1015.1 - 0.0 - - 10 - - - -
23/02:00am 22.5 ESE 8 10 1015.1 - 0.0 - Partly cloudy 10 - - - -
23/01:30am 22.6 SE 9 12 1015.4 - 0.0 - - 10 - - - -
23/01:00am 22.8 ESE 9 12 1015.7 - 0.0 - Partly cloudy 10 - - - -
23/12:30am 23.1 ESE 9 13 1015.9 - 0.0 - Partly cloudy 10 - - - -
 
Date/Time
EST
Temp

°C
Wind Pressure Rain
since 9am
mm
Weather Cloud Vis
km
Sea
Height
m
Swell
Dir
 
Speed
knots
Gust
knots
hPa Trend Height
m
Period
s
Dir
22/11:30pm 22.8 ESE 9 13 1016.7 - 0.0 - - 10 - - - -
22/11:00pm 23.1 ESE 10 13 1016.7 - 0.0 - - 10 - - - -
22/10:30pm 23.3 ESE 10 13 1017.1 - 0.0 - Partly cloudy 10 - - - -
22/10:00pm 23.4 ESE 10 14 1017.2 - 0.0 - Partly cloudy 10 - - - -
22/09:30pm 23.5 ESE 11 14 1017.2 - 0.0 - Partly cloudy 10 - - - -
22/09:00pm 23.6 ESE 11 14 1017.2 - 0.0 - Cloudy 10 - - - -
22/08:30pm 23.8 E 11 15 1017.0 - 0.0 - Partly cloudy 10 - - - -
22/08:00pm 23.8 ESE 10 13 1016.9 - 0.0 - Partly cloudy 10 - - - -
22/07:30pm 23.7 ESE 10 13 1016.8 - 0.0 - Partly cloudy 10 - - - -
22/07:00pm 23.8 ESE 10 13 1016.5 - 0.0 - Partly cloudy 10 - - - -
22/06:30pm 23.8 SE 9 13 1016.2 - 0.0 - Partly cloudy 10 - - - -
22/06:00pm 24.4 ESE 10 14 1015.9 - 0.0 - - 10 - - - -
22/05:30pm 24.9 ESE 10 14 1015.8 - 0.0 - - 10 - - - -
22/05:00pm 25.5 ESE 10 15 1015.6 - 0.0 - - 10 - - - -
22/04:30pm 25.9 ESE 11 13 1015.3 - 0.0 - - 10 - - - -
22/04:00pm 26.0 ESE 10 14 1015.3 - 0.0 - - 10 - - - -
22/03:30pm 26.4 E 12 14 1015.5 - 0.0 - - 10 - - - -
22/03:00pm 27.3 SE 11 15 1015.8 - 0.0 - - 10 - - - -
22/02:30pm 26.7 SE 12 17 1016.0 - 0.0 - - 10 - - - -
22/02:00pm 27.4 ESE 11 15 1016.3 - 0.0 - - 10 - - - -
22/01:30pm 27.7 ESE 12 16 1016.5 - 0.0 - - 10 - - - -
22/01:00pm 27.6 ESE 12 16 1016.8 - 0.0 - - 10 - - - -
22/12:30pm 27.7 SE 13 16 1017.3 - 0.0 - - 10 - - - -
22/12:00pm 26.9 SE 13 17 1017.7 - 0.0 - - 10 - - - -
22/11:30am 27.0 SE 12 16 1017.9 - 0.0 - - 10 - - - -
22/11:00am 27.3 SE 12 15 1018.0 - 0.0 - - 10 - - - -
22/10:30am 27.6 SE 12 17 1018.1 - 0.0 - - 10 - - - -
22/10:00am 27.2 SE 12 17 1018.1 - 0.0 - - 10 - - - -
22/09:30am 26.9 SE 12 15 1017.9 - 0.0 - - 10 - - - -
22/09:00am 26.5 SE 13 17 1017.8 - 0.0 - - 10 - - - -
22/08:30am 26.0 SE 13 17 1017.8 - 0.0 - - 10 - - - -
22/08:00am 25.9 SE 13 18 1017.5 - 0.0 - - 10 - - - -
22/07:30am 25.7 SE 12 16 1017.2 - 0.0 - - 10 - - - -
22/07:00am 25.3 SE 11 15 1016.9 - 0.0 - - 10 - - - -
22/06:30am 24.6 SE 11 14 1016.8 - 0.0 - - 10 - - - -
22/06:00am 24.0 SE 10 13 1016.6 - 0.0 - - 10 - - - -
22/05:30am 22.9 SE 8 11 1016.3 - 0.0 - - 10 - - - -
22/05:00am 22.5 SE 10 13 1015.9 - 0.0 - - 10 - - - -
22/04:30am 22.1 SE 8 11 1015.7 - 0.0 - Partly cloudy 10 - - - -
22/04:00am 22.7 SE 9 11 1015.4 - 0.0 - Partly cloudy 10 - - - -
22/03:30am 22.9 SE 10 13 1015.5 - 0.0 - Partly cloudy 10 - - - -
22/03:00am 23.0 SE 9 12 1015.6 - 0.0 - Cloudy 10 - - - -
22/02:30am 23.1 SE 9 13 1015.6 - 0.0 - Partly cloudy 10 - - - -
22/02:00am 23.1 ESE 10 13 1015.7 - 0.0 - Partly cloudy 10 - - - -
22/01:30am 23.1 ESE 9 12 1016.1 - 0.0 - Partly cloudy 10 - - - -
22/01:00am 23.2 ESE 11 14 1016.2 - 0.0 - Partly cloudy 10 - - - -
22/12:30am 23.4 ESE 10 13 1016.5 - 0.0 - Cloudy 10 - - - -
22/12:00am 23.6 ESE 12 16 1017.0 - 0.0 - Cloudy 10 - - - -
 
Date/Time
EST
Temp

°C
Wind Pressure Rain
since 9am
mm
Weather Cloud Vis
km
Sea
Height
m
Swell
Dir
 
Speed
knots
Gust
knots
hPa Trend Height
m
Period
s
Dir
21/11:30pm 23.8 ESE 10 14 1017.6 - 0.0 - Cloudy 10 - - - -
21/11:00pm 23.8 ESE 9 11 1018.0 - 0.0 - Cloudy 10 - - - -
21/10:30pm 23.9 ESE 10 13 1017.9 - 0.0 - Cloudy 10 - - - -
21/10:00pm 23.9 E 10 14 1018.0 - 0.0 - Partly cloudy 10 - - - -
21/09:30pm 24.0 ESE 9 13 1018.1 - 0.0 - Cloudy 10 - - - -
21/09:00pm 24.0 ESE 10 13 1017.7 - 0.0 - Cloudy 10 - - - -
21/08:30pm 24.1 ESE 9 12 1017.5 - 0.0 - Partly cloudy 10 - - - -
21/08:00pm 24.0 ESE 10 13 1017.4 - 0.0 - Partly cloudy 10 - - - -
21/07:30pm 24.1 E 11 14 1017.1 - 0.0 - Partly cloudy 10 - - - -
21/07:00pm 24.2 E 10 14 1016.7 - 0.0 - Partly cloudy 10 - - - -
21/06:30pm 24.4 E 9 11 1016.5 - 0.0 - Partly cloudy 10 - - - -
21/06:00pm 24.6 E 9 12 1016.0 - 0.0 - Cloudy 10 - - - -
21/05:30pm 25.4 E 10 13 1015.8 - 0.0 - Partly cloudy 10 - - - -
21/05:00pm 25.9 E 8 12 1015.8 - 0.0 - - 10 - - - -
21/04:30pm 26.4 E 9 12 1015.6 - 0.0 - - 10 - - - -
21/04:00pm 26.6 E 10 12 1015.4 - 0.0 - - 10 - - - -
21/03:30pm 26.8 E 10 13 1015.8 - 0.0 - - 10 - - - -
21/03:00pm 27.0 E 10 13 1015.8 - 0.0 - - 10 - - - -
21/02:30pm 27.2 E 10 14 1016.0 - 0.0 - - 10 - - - -
21/02:00pm 28.2 E 10 12 1016.3 - 0.0 - - 10 - - - -
21/01:30pm 27.3 E 9 12 1016.6 - 0.0 - Partly cloudy 10 - - - -
21/01:00pm 28.2 E 9 11 1016.8 - 0.0 - - 10 - - - -
21/12:30pm 28.1 E 9 12 1017.1 - 0.0 - - 10 - - - -
21/12:00pm 28.3 E 9 13 1017.5 - 0.0 - - 10 - - - -
21/11:30am 27.8 E 9 12 1017.8 - 0.0 - - 10 - - - -
21/11:00am 27.3 E 9 11 1018.0 - 0.0 - - 10 - - - -
21/10:30am 27.4 ESE 9 11 1018.2 - 0.0 - - 10 - - - -
21/10:00am 27.3 E 9 11 1018.2 - 0.0 - - 10 - - - -
21/09:30am 27.0 E 8 11 1018.3 - 0.0 - Partly cloudy 10 - - - -
21/09:00am 27.2 ESE 9 12 1018.1 - 0.0 - - 10 - - - -
21/08:30am 26.6 E 9 11 1018.0 - 0.0 - Partly cloudy 10 - - - -
21/08:00am 26.7 E 9 12 1017.9 - 0.0 - Partly cloudy 10 - - - -
21/07:30am 25.6 E 10 14 1017.7 - 0.0 - Partly cloudy 10 - - - -
21/07:00am 25.5 E 9 12 1017.4 - 0.0 - - 10 - - - -
21/06:30am 25.3 E 10 14 1017.2 - 0.0 - Partly cloudy 10 - - - -
21/06:00am 24.8 E 9 11 1017.0 - 0.0 - Cloudy 10 - - - -
21/05:30am 23.9 E 8 12 1016.7 - 0.0 - Partly cloudy 10 - - - -
21/05:00am 23.6 E 8 11 1016.3 - 0.0 - Partly cloudy 10 - - - -
21/04:30am 23.6 E 10 14 1015.8 - 0.0 - Partly cloudy 10 - - - -
21/04:00am 23.7 E 10 14 1015.5 - 0.0 - Partly cloudy 10 - - - -
21/03:30am 23.6 E 10 13 1015.5 - 0.0 - Partly cloudy 10 - - - -
21/03:00am 23.5 E 10 13 1015.4 - 0.0 - Cloudy 10 - - - -
21/02:30am 23.6 E 9 12 1015.6 - 0.0 - - 10 - - - -
21/02:00am 23.7 E 10 14 1015.6 - 0.0 - Partly cloudy 10 - - - -
21/01:30am 23.8 E 10 14 1015.8 - 0.0 - Partly cloudy 10 - - - -
21/01:00am 23.8 E 8 11 1015.9 - 0.0 - Partly cloudy 10 - - - -
21/12:30am 23.8 E 9 13 1016.1 - 0.0 - Partly cloudy 10 - - - -
21/12:00am 23.9 E 10 14 1016.4 - 0.0 - Cloudy 10 - - - -
 
Date/Time
EST
Temp

°C
Wind Pressure Rain
since 9am
mm
Weather Cloud Vis
km
Sea
Height
m
Swell
Dir
 
Speed
knots
Gust
knots
hPa Trend Height
m
Period
s
Dir
20/11:30pm 24.0 E 9 11 1016.8 - 0.0 - Partly cloudy 10 - - - -
20/11:00pm 24.1 E 9 13 1016.9 - 0.0 - Partly cloudy 10 - - - -
20/10:30pm 24.3 E 11 15 1016.9 - 0.0 - Partly cloudy 10 - - - -
20/10:00pm 24.3 E 11 15 1016.9 - 0.0 - Partly cloudy 10 - - - -
20/09:30pm 24.4 E 12 15 1016.8 - 0.0 - Partly cloudy 10 - - - -
20/09:00pm 24.3 E 10 14 1016.5 - 0.0 - Cloudy 10 - - - -
20/08:30pm 24.5 E 11 15 1016.3 - 0.0 - Partly cloudy 10 - - - -
20/08:00pm 24.6 E 11 16 1015.9 - 0.0 - Partly cloudy 10 - - - -
20/07:30pm 24.5 E 11 15 1015.4 - 0.0 - Partly cloudy 10 - - - -
20/07:00pm 24.5 E 11 15 1014.9 - 0.0 - Partly cloudy 10 - - - -
20/06:30pm 24.7 E 12 17 1014.6 - 0.0 - Partly cloudy 10 - - - -
20/06:00pm 25.0 E 12 16 1014.3 - 0.0 - - 10 - - - -
20/05:30pm 25.3 E 12 16 1014.0 - 0.0 - Partly cloudy 10 - - - -
20/05:00pm 25.3 E 12 17 1013.7 - 0.0 - Partly cloudy 10 - - - -
20/04:30pm 26.2 ESE 12 16 1013.4 - 0.0 - Partly cloudy 10 - - - -
20/04:00pm 26.9 ESE 12 17 1013.3 - 0.0 - Partly cloudy 10 - - - -
20/03:30pm 26.8 ESE 13 17 1013.2 - 0.0 - Partly cloudy 10 - - - -
20/03:00pm 28.1 ESE 12 16 1013.4 - 0.0 - Cloudy 10 - - - -
20/02:30pm 27.4 ESE 14 17 1013.9 - 0.0 - Partly cloudy 10 - - - -
20/02:00pm 27.9 ESE 13 16 1014.0 - 0.0 - - 10 - - - -
20/01:30pm 29.0 ESE 11 15 1014.4 - 0.0 - Partly cloudy 10 - - - -
20/01:00pm 28.2 ESE 13 17 1014.4 - 0.0 - Partly cloudy 10 - - - -
20/12:30pm 28.6 ESE 13 16 1014.6 - 0.0 - - 10 - - - -
20/12:00pm 27.9 ESE 13 17 1014.9 - 0.0 - - 10 - - - -
20/11:30am 28.2 ESE 12 16 1015.2 - 0.0 - - 10 - - - -
20/11:00am 28.5 ESE 12 15 1015.6 - 0.0 - - 10 - - - -
20/10:30am 28.1 ESE 12 15 1015.7 - 0.0 - - 10 - - - -
20/10:00am 28.1 ESE 12 15 1015.7 - 0.0 - Partly cloudy 10 - - - -
20/09:30am 27.7 ESE 12 15 1015.7 - 0.0 - Partly cloudy 10 - - - -
20/09:00am 27.7 ESE 10 13 1015.7 - 0.2 - Cloudy 10 - - - -
20/08:30am 27.3 SSE 11 14 1015.5 - 0.2 - - 10 - - - -
20/08:00am 26.8 SSE 12 15 1015.4 - 0.2 - - 10 - - - -
20/07:30am 26.6 SSE 11 15 1015.1 - 0.2 - - 10 - - - -
20/07:00am 26.0 S 8 11 1014.9 - 0.2 - - 10 - - - -
20/06:30am 24.5 S 9 11 1014.7 - 0.2 - Partly cloudy 10 - - - -
20/06:00am 23.8 S 7 8 1014.2 - 0.2 - - 10 - - - -
20/05:30am 23.1 SSW 6 8 1013.9 - 0.2 - - 10 - - - -
20/05:00am 23.0 S 7 10 1013.6 - 0.2 - Partly cloudy 10 - - - -
20/04:30am 23.3 SSE 10 15 1013.2 - 0.2 - - 10 - - - -
20/04:00am 23.3 SSE 10 14 1013.0 - 0.2 - - 10 - - - -

Other Formats:

Comma delimited format used in spreadsheet applications
http://www.bom.gov.au/fwo/IDQ60701/IDQ60701.94569.axf

JavaScript Object Notation format (JSON) in row-major order
http://www.bom.gov.au/fwo/IDQ60701/IDQ60701.94569.json